Wind_Speed
7 8 9 9 9 10 11 11 13 13 14 15 16 17 17 17 17 17 16 15 15 16 17 17 17 17 17 17 17 16 16 15 14 13 12 12 11 11 11 11 11 11 11 11
10 11 12 11 12 13 13 14 14 15 15 16 17 17 18 18 18 18 17 17 17 17 18 19 19 19 19 19 19 18 18 17 17 16 15 14 13 12 12 11 11 11 11 11
12 13 13 13 14 16 16 16 16 17 17 18 18 19 19 19 19 18 19 19 19 19 20 21 21 21 21 21 21 20 20 19 19 18 17 16 15 14 13 12 12 12 11 11
14 14 14 14 16 16 17 17 18 19 20 20 20 21 21 21 21 20 20 20 20 21 21 22 22 22 23 23 23 23 22 21 21 20 19 18 17 16 15 14 13 13 12 12
17 17 16 17 18 19 19 19 20 21 22 22 23 24 24 24 23 23 24 24 23 23 23 23 24 24 24 25 25 24 24 23 23 22 22 21 19 18 17 16 15 14 14 13
20 20 21 21 21 22 24 24 24 24 25 25 26 26 26 27 26 26 26 27 27 26 25 26 26 26 26 27 26 26 26 26 25 24 24 23 22 21 19 18 17 16 15 15
24 24 25 25 25 26 27 28 28 29 29 29 29 30 30 29 29 29 29 29 29 29 29 29 29 29 28 29 29 29 29 28 28 27 26 25 24 23 22 21 20 19 18 17
27 28 28 28 29 30 31 32 32 32 33 33 34 34 34 34 33 33 33 33 33 33 32 32 33 32 31 31 31 32 31 30 30 29 29 28 26 26 25 23 22 21 20 19
30 30 31 32 32 33 34 35 35 36 36 37 37 38 38 38 38 37 37 37 37 36 35 36 36 35 34 34 34 34 33 33 32 32 31 30 29 28 27 26 24 23 22 21
33 33 34 35 36 37 37 38 39 39 40 41 42 42 42 41 41 41 40 40 40 40 39 38 38 38 37 37 36 36 35 35 35 34 33 32 31 30 29 28 26 25 24 23
37 37 38 39 40 40 40 41 42 43 43 44 45 45 46 45 45 44 43 43 43 42 41 40 40 40 40 40 39 38 38 37 37 36 36 34 33 32 31 30 29 27 26 25
39 40 42 42 43 44 44 45 45 46 46 47 47 48 48 48 47 47 46 45 45 44 43 42 42 42 42 42 41 41 40 39 39 39 38 37 35 34 33 32 31 30 28 27
42 43 44 45 46 47 48 48 49 49 49 49 49 49 49 49 49 49 48 46 45 45 45 44 44 43 43 44 43 43 42 42 41 41 40 39 38 36 35 34 33 32 31 29
45 46 47 48 49 50 50 50 50 50 50 50 50 50 49 49 49 49 49 48 47 47 47 47 46 45 45 46 46 45 44 44 43 43 42 41 40 38 37 36 35 34 33 32
48 48 49 50 50 50 51 51 51 51 51 51 51 50 49 48 48 49 48 48 48 48 48 48 48 47 47 47 48 47 46 45 45 45 45 43 42 41 39 38 37 36 35 34
50 50 50 51 51 52 52 52 52 52 52 51 51 51 50 49 48 48 49 49 48 48 48 49 48 48 48 49 49 49 49 47 47 47 47 46 44 43 42 40 39 37 36 35
51 51 51 52 52 52 53 53 53 52 52 52 51 51 50 50 49 48 48 49 48 48 48 49 49 49 49 49 50 50 51 50 49 49 48 47 46 45 44 42 41 39 38 37
53 53 53 53 54 54 54 54 54 54 53 52 52 52 51 50 50 49 48 48 48 47 47 48 48 48 48 48 49 50 51 52 52 51 50 50 48 47 46 44 43 41 40 39
54 54 54 54 54 55 55 54 54 53 52 52 52 51 50 50 50 49 48 47 47 46 46 46 46 46 46 47 48 49 50 52 52 52 52 52 51 50 48 46 45 44 42 41
55 55 55 54 54 54 54 54 53 52 51 52 51 50 49 49 48 47 46 46 46 46 45 45 44 44 44 45 46 48 49 51 51 52 52 52 52 51 50 48 47 46 45 43
55 55 54 54 53 53 53 53 52 51 50 50 50 50 48 47 46 46 45 45 44 45 44 44 43 44 44 44 44 46 47 49 50 51 52 52 52 52 51 49 48 47 46 45
54 53 53 52 52 52 51 52 51 51 50 49 49 48 47 46 45 45 44 44 43 43 42 42 43 43 43 43 43 44 45 46 48 49 50 51 52 52 51 50 48 48 47 46
52 52 52 51 51 50 49 49 49 49 49 48 47 46 46 45 45 44 43 42 41 41 41 41 41 42 41 41 42 42 44 45 46 47 48 50 51 52 51 50 50 49 48 47
51 50 50 50 50 49 48 47 47 47 47 46 45 45 45 44 43 43 42 41 41 40 40 40 40 39 38 38 39 40 41 43 44 45 47 48 50 51 51 50 50 51 50 49
50 49 49 49 48 47 47 46 46 45 45 45 44 44 43 43 42 41 41 41 40 39 38 37 36 35 35 34 34 36 37 39 41 43 44 46 47 48 49 50 50 50 50 49
48 47 47 47 46 46 45 45 44 44 44 44 43 42 42 41 41 40 40 39 37 36 33 32 32 32 31 31 31 33 34 36 38 39 41 43 45 46 47 48 50 50 49 48
46 45 45 44 44 44 43 43 43 42 42 41 41 40 40 39 38 38 36 35 33 31 29 28 28 28 29 29 29 30 32 34 35 37 39 40 42 43 43 45 46 47 47 47
Wind_Direction
334 321 319 321 314 306 303 303 302 304 306 306 304 305 305 304 302 302 298 293 289 284 280 274 271 271 269 270 270 271 273 275 277 281 286 293 302 310 318 324 329 333 335 337
323 317 316 314 308 303 302 300 300 302 303 304 305 304 303 302 299 298 295 292 287 283 280 276 273 271 269 267 267 268 270 271 272 274 278 284 290 296 303 311 317 322 326 330
319 314 312 306 303 302 302 301 302 302 303 303 304 302 301 299 296 294 292 290 286 283 280 277 274 272 269 267 266 265 267 268 270 271 274 277 281 285 291 298 305 311 315 319
319 316 312 309 306 303 303 305 305 304 303 304 303 302 301 298 295 293 290 287 284 282 280 278 275 273 271 268 266 264 264 265 267 268 270 271 274 277 281 287 293 300 304 308
318 315 312 307 304 302 302 304 305 303 302 301 300 299 299 298 296 293 291 287 285 282 280 278 275 273 271 269 267 264 262 263 264 265 267 268 269 271 274 278 284 289 294 298
317 314 311 308 306 303 302 300 302 301 300 298 297 295 295 294 292 290 288 287 285 282 279 277 275 273 271 269 266 264 261 260 261 263 265 266 266 267 270 273 276 280 284 288
313 311 309 308 308 305 303 303 301 301 300 298 296 293 293 292 289 287 285 284 283 281 279 276 274 273 271 268 265 263 261 260 260 261 262 263 264 265 266 269 271 273 277 281
309 307 306 306 306 304 303 301 301 299 298 297 295 293 291 290 289 286 284 283 281 280 278 276 274 272 270 267 264 262 260 259 259 259 260 260 261 262 263 265 267 269 272 275
305 304 303 303 302 302 302 301 300 298 296 295 293 292 290 289 288 286 284 282 281 279 277 274 272 270 268 265 263 261 260 258 257 257 257 258 259 260 260 262 264 266 268 271
302 302 301 300 300 300 300 300 298 296 294 293 292 290 289 288 286 284 283 282 280 278 275 273 270 268 267 265 263 261 259 257 256 255 255 256 256 258 259 260 261 263 264 266
301 301 299 299 299 298 298 297 297 295 292 291 289 288 287 286 285 283 281 279 278 277 274 272 269 266 265 264 262 260 258 256 255 254 254 254 255 256 256 257 258 260 262 264
300 299 298 298 297 297 297 296 296 295 292 290 289 288 287 285 284 282 280 277 276 275 274 271 268 266 263 262 260 259 258 256 254 253 252 252 253 253 254 255 255 257 258 260
298 297 297 296 296 296 296 295 295 295 294 292 290 288 287 285 284 282 280 278 275 273 272 269 267 265 262 260 259 258 256 255 253 252 251 251 250 251 251 252 253 254 255 257
297 297 296 296 295 295 295 294 294 294 294 293 291 289 288 286 284 282 281 279 276 273 270 268 266 263 261 259 257 256 255 254 252 251 250 249 248 248 249 250 251 252 253 255
296 296 295 295 294 294 294 294 294 294 294 293 292 290 289 287 286 283 281 279 277 274 271 268 266 263 261 258 256 255 254 252 250 249 248 247 246 246 246 248 249 250 251 253
295 295 294 294 294 294 294 294 294 293 293 293 292 291 289 288 286 283 281 279 278 275 273 270 267 265 261 258 255 253 252 250 248 247 246 246 245 245 245 246 247 248 249 251
295 295 294 294 294 294 294 293 294 294 294 293 292 291 289 288 286 284 282 280 278 276 274 271 269 266 263 259 256 252 249 248 246 245 244 243 243 243 243 244 245 246 247 249
294 294 295 294 293 293 294 294 294 295 294 293 292 291 290 288 286 285 282 280 277 275 274 272 269 266 263 260 256 252 249 247 245 244 242 241 241 241 242 242 243 244 245 247
295 295 294 294 294 294 294 294 294 294 294 294 293 293 292 290 288 286 284 281 278 276 273 271 269 267 263 260 256 252 249 247 245 244 242 240 238 238 239 240 240 242 243 245
295 295 295 294 294 294 294 295 295 295 295 295 294 294 293 292 290 288 287 284 280 277 274 271 268 266 264 262 258 253 249 246 245 244 242 240 238 236 236 238 240 240 242 244
295 295 295 294 294 293 294 294 295 295 295 295 295 294 294 292 290 289 288 285 282 278 275 272 269 266 264 262 259 254 250 246 244 243 241 239 237 236 236 236 238 239 240 243
294 294 294 294 294 294 294 294 294 294 295 295 295 294 293 292 291 290 288 287 283 279 275 272 269 266 265 262 259 254 250 246 244 241 239 238 236 235 235 235 236 238 239 241
293 293 293 293 293 294 294 293 293 293 294 295 294 293 293 293 292 290 288 287 285 282 278 275 272 268 264 261 258 254 249 245 243 240 238 236 236 234 234 234 235 236 237 239
292 292 293 293 293 293 293 292 292 293 294 295 294 294 293 293 292 291 290 288 287 285 280 277 273 268 264 261 257 252 248 244 241 238 237 236 235 234 233 233 234 235 237 239
291 291 292 292 293 293 292 291 291 292 293 294 294 294 293 293 292 292 291 290 287 285 281 277 272 267 265 261 256 251 246 243 240 237 235 234 234 233 233 233 234 236 237 239
290 290 291 291 292 292 292 292 292 293 294 294 294 294 293 293 294 293 292 291 288 284 281 277 272 266 263 259 256 250 245 242 239 236 233 232 232 233 233 233 234 235 237 239
289 289 289 290 290 290 292 293 294 294 294 295 294 293 293 293 294 293 292 291 287 284 281 277 271 265 260 257 253 249 245 242 238 235 232 231 231 232 233 232 233 235 237 240
Height
5831 5830 5829 5828 5827 5826 5825 5824 5823 5822 5820 5819 5818 5816 5815 5814 5812 5811 5811 5810 5809 5808 5807 5807 5807 5806 5806 5805 5805 5804 5803 5802 5801 5800 5799 5798 5796 5794 5792 5790 5788 5786 5784 5782
5829 5828 5826 5825 5824 5822 5821 5820 5818 5817 5816 5815 5813 5812 5810 5809 5808 5806 5806 5805 5804 5803 5802 5802 5801 5801 5801 5800 5800 5799 5799 5798 5797 5796 5795 5794 5793 5791 5789 5788 5786 5784 5782 5780
5827 5825 5823 5822 5820 5818 5817 5815 5814 5813 5813 5810 5809 5807 5806 5804 5803 5801 5801 5800 5799 5798 5797 5796 5795 5795 5795 5794 5794 5794 5793 5793 5792 5791 5791 5790 5789 5787 5786 5784 5783 5781 5779 5777
5823 5822 5820 5821 5816 5814 5812 5811 5810 5808 5807 5805 5804 5802 5800 5799 5797 5796 5795 5794 5793 5792 5791 5790 5789 5789 5788 5788 5788 5787 5787 5787 5786 5786 5785 5785 5784 5783 5782 5781 5779 5778 5776 5775
5818 5816 5815 5814 5811 5809 5807 5806 5804 5803 5801 5800 5798 5796 5794 5793 5791 5789 5788 5787 5786 5785 5785 5784 5783 5782 5781 5781 5781 5781 5780 5780 5780 5780 5779 5779 5778 5778 5777 5776 5775 5774 5772 5771
5812 5810 5809 5808 5806 5803 5802 5800 5798 5796 5795 5793 5791 5790 5788 5786 5784 5783 5781 5779 5778 5777 5777 5776 5775 5774 5774 5773 5773 5773 5773 5773 5773 5773 5773 5772 5772 5771 5771 5770 5770 5769 5768 5767
5807 5804 5802 5801 5798 5797 5795 5793 5791 5789 5787 5785 5783 5782 5780 5778 5777 5775 5773 5772 5770 5769 5768 5767 5766 5766 5766 5765 5765 5764 5764 5764 5765 5765 5765 5765 5765 5765 5764 5764 5764 5763 5762 5762
5800 5798 5797 5794 5791 5789 5787 5784 5782 5780 5778 5776 5774 5772 5770 5768 5767 5765 5763 5762 5760 5759 5758 5757 5756 5756 5756 5755 5755 5754 5755 5755 5756 5756 5756 5757 5757 5757 5757 5757 5757 5757 5756 5756
5794 5792 5788 5785 5783 5781 5778 5775 5773 5770 5768 5765 5763 5761 5759 5757 5755 5753 5752 5750 5749 5748 5747 5746 5744 5744 5744 5744 5743 5744 5744 5745 5746 5746 5747 5747 5748 5748 5749 5749 5749 5749 5749 5749
5784 5782 5779 5776 5773 5771 5768 5765 5762 5759 5756 5753 5751 5748 5746 5744 5743 5741 5739 5737 5736 5734 5733 5733 5732 5731 5731 5731 5731 5732 5733 5734 5735 5736 5737 5737 5738 5739 5740 5740 5741 5741 5742 5742
5775 5772 5769 5766 5763 5760 5757 5754 5750 5747 5744 5740 5737 5735 5732 5730 5728 5727 5725 5723 5721 5720 5719 5719 5718 5718 5718 5717 5718 5719 5720 5721 5723 5724 5725 5727 5728 5729 5730 5731 5732 5733 5733 5733
5766 5762 5758 5756 5752 5748 5745 5741 5738 5734 5730 5726 5723 5720 5717 5715 5713 5711 5709 5707 5706 5705 5704 5704 5703 5704 5704 5704 5704 5705 5706 5708 5710 5712 5713 5715 5716 5718 5719 5721 5722 5723 5724 5725
5753 5750 5746 5742 5739 5735 5731 5727 5723 5719 5715 5712 5708 5705 5702 5699 5696 5694 5692 5691 5690 5689 5688 5688 5688 5688 5688 5689 5690 5691 5692 5694 5696 5698 5700 5702 5704 5706 5708 5710 5711 5712 5714 5715
5740 5736 5732 5728 5724 5720 5716 5712 5708 5704 5700 5696 5692 5689 5685 5682 5680 5677 5675 5673 5672 5672 5671 5671 5671 5672 5672 5672 5674 5676 5677 5679 5681 5684 5686 5689 5692 5694 5696 5698 5700 5701 5703 5704
5726 5721 5718 5714 5710 5705 5701 5697 5692 5688 5684 5680 5676 5672 5668 5665 5663 5660 5658 5656 5655 5654 5654 5653 5654 5655 5655 5656 5657 5659 5661 5664 5666 5669 5672 5675 5678 5681 5683 5686 5688 5690 5692 5693
5711 5707 5702 5698 5694 5690 5685 5681 5677 5673 5668 5664 5660 5656 5652 5649 5646 5643 5641 5638 5637 5637 5636 5635 5636 5636 5637 5638 5639 5642 5645 5647 5650 5653 5656 5660 5664 5667 5670 5673 5675 5678 5680 5682
5696 5692 5687 5683 5679 5674 5670 5665 5661 5656 5652 5648 5643 5639 5635 5632 5629 5626 5624 5621 5620 5619 5618 5617 5618 5618 5618 5619 5621 5624 5627 5630 5633 5637 5640 5645 5649 5653 5656 5660 5662 5665 5668 5670
5680 5675 5671 5667 5662 5658 5653 5649 5644 5639 5635 5630 5626 5622 5618 5614 5611 5609 5606 5604 5602 5601 5600 5599 5599 5600 5600 5601 5603 5606 5609 5612 5616 5620 5624 5628 5633 5638 5642 5646 5649 5652 5655 5657
5664 5659 5655 5650 5645 5640 5636 5632 5627 5622 5618 5613 5609 5605 5601 5597 5593 5590 5588 5586 5585 5584 5583 5582 5581 5582 5582 5583 5584 5587 5591 5594 5598 5602 5607 5612 5616 5621 5627 5631 5635 5638 5642 5644
5647 5642 5638 5633 5628 5623 5619 5614 5610 5605 5601 5596 5592 5588 5584 5581 5577 5574 5571 5569 5567 5565 5565 5564 5564 5565 5565 5566 5567 5569 5572 5576 5580 5585 5589 5594 5600 5605 5611 5616 5620 5624 5628 5632
5631 5626 5621 5616 5612 5608 5603 5598 5593 5589 5585 5580 5576 5572 5568 5565 5561 5557 5554 5553 5551 5548 5547 5547 5547 5547 5548 5549 5550 5551 5554 5558 5563 5567 5572 5578 5583 5589 5595 5600 5605 5610 5614 5618
5614 5609 5605 5600 5596 5592 5587 5582 5578 5574 5570 5565 5561 5557 5553 5549 5546 5543 5539 5536 5534 5532 5530 5530 5530 5530 5530 5531 5533 5535 5537 5541 5545 5550 5556 5561 5567 5573 5579 5585 5590 5595 5600 5604
5597 5593 5589 5585 5580 5576 5572 5568 5563 5558 5554 5550 5546 5542 5538 5535 5531 5528 5525 5522 5518 5516 5515 5514 5513 5513 5513 5514 5516 5518 5521 5525 5529 5534 5540 5546 5551 5557 5563 5569 5575 5580 5585 5590
5581 5577 5573 5569 5565 5561 5557 5553 5548 5544 5540 5536 5532 5528 5524 5521 5518 5514 5510 5507 5504 5502 5500 5499 5498 5498 5498 5499 5500 5503 5506 5510 5514 5519 5524 5530 5536 5542 5548 5554 5560 5565 5571 5575
5565 5562 5558 5554 5550 5546 5542 5538 5534 5531 5527 5523 5519 5514 5510 5506 5503 5501 5497 5494 5491 5488 5487 5485 5484 5484 5485 5486 5487 5489 5492 5496 5500 5505 5510 5516 5522 5527 5533 5539 5545 5551 5556 5561
5550 5546 5543 5539 5535 5531 5527 5524 5521 5517 5513 5509 5506 5502 5498 5494 5491 5487 5484 5481 5478 5476 5474 5473 5472 5472 5473 5474 5475 5477 5480 5483 5487 5492 5497 5502 5508 5514 5519 5525 5531 5537 5542 5548
5535 5532 5528 5526 5522 5518 5514 5511 5507 5504 5500 5496 5493 5490 5486 5482 5479 5475 5472 5469 5466 5465 5463 5462 5462 5462 5462 5463 5464 5466 5469 5472 5476 5480 5485 5490 5496 5501 5506 5512 5518 5523 5529 5534